DateTimeUTC,F1_A11,F1_S11,BsB_S11,BsG_S11,BsR_S11,BbsB_S11,BbsG_S11,BbsR_S11,BaB_A11,BaG_A11,BaR_A11,Tu_S11,T_S11,Uu_S11,U_S11,P_S11,T1_A11
2021-10-26T21:00:00Z,00000200,21000000,,,,,,,-000.53,-000.06,-000.25,17.7,24.8,,00.0,0646.1,31.0
2021-10-26T21:01:00Z,00000200,21000000,,,,,,,0000.30,0000.22,0000.09,17.6,24.8,,00.0,0646.1,31.0
2021-10-26T21:02:00Z,00000200,21000000,,,,,,,-000.35,-000.20,-000.19,17.6,24.7,,00.0,0646.1,31.0
2021-10-26T21:03:00Z,00000200,61000000,,,,,,,0000.53,-000.37,-000.05,17.6,24.7,,00.0,0646.1,31.0
2021-10-26T21:04:00Z,00000200,41000000,-000.39,0000.33,-000.21,-000.20,-000.19,0000.03,0000.18,0000.43,0000.56,17.6,24.5,,00.0,0646.9,31.0
2021-10-26T21:05:00Z,00000200,01000000,0000.38,0000.00,-000.26,-000.01,-000.07,-000.03,-000.01,0000.25,-000.01,17.7,24.5,,00.0,0646.9,31.0
2021-10-26T21:06:00Z,00000200,01000000,0000.41,0000.19,0000.05,-000.04,0000.01,0000.11,-000.03,-000.28,-000.21,17.7,24.5,,00.0,0647.0,31.0
2021-10-26T21:07:00Z,00000200,01000000,0000.04,0000.17,-000.07,0000.44,0000.06,-000.01,0000.13,0000.18,0000.34,17.8,24.5,,00.0,0646.9,31.0
2021-10-26T21:08:00Z,00000200,01000000,0000.46,0000.04,-000.34,0000.23,-000.31,0000.01,0000.60,0001.01,0000.41,17.9,24.5,,00.0,0647.0,31.0
2021-10-26T21:09:00Z,00000200,01000000,0000.56,0000.13,-000.25,-000.22,0000.20,-000.09,0001.19,0001.10,0001.01,17.9,24.5,,00.0,0647.0,31.0
2021-10-26T21:10:00Z,00000200,01000000,0000.65,0000.28,-000.00,0000.03,-000.18,0000.12,-000.61,-000.62,-000.34,18.0,24.6,,00.0,0647.0,31.0
2021-10-26T21:11:00Z,00000200,01000000,-000.16,0000.09,-000.14,-000.14,0000.08,-000.23,0000.38,0000.14,-000.07,18.0,24.6,,00.0,0647.1,31.0
2021-10-26T21:12:00Z,00000200,01000000,0000.13,0000.01,-000.30,0000.20,-000.22,-000.50,-000.46,-000.25,-000.32,18.0,24.6,,00.0,0647.1,31.0
2021-10-26T21:13:00Z,00000200,01000000,0000.02,0000.02,-000.26,0000.66,0000.01,0000.00,-000.43,-000.21,0000.11,17.9,24.5,,00.0,0647.1,31.0
2021-10-26T21:14:00Z,00000200,01000000,-000.01,0000.17,0000.26,0000.37,-000.11,-000.17,0000.28,-000.17,-000.16,17.9,24.6,,00.0,0647.1,31.0
2021-10-26T21:15:00Z,00000200,01000000,-000.09,0000.32,0000.10,0000.32,0000.05,0000.21,0000.27,-000.06,-000.05,17.8,24.5,,00.0,0647.1,31.0
2021-10-26T21:16:00Z,00000200,01000000,0000.22,-000.06,-000.31,-000.08,-000.12,-000.08,-000.52,-000.26,0000.18,17.7,24.5,,00.0,0647.1,31.0
2021-10-26T21:17:00Z,00000200,01000000,-000.13,-000.36,-000.20,0000.19,0000.03,-000.01,-000.07,0000.25,-000.40,17.7,24.5,,00.0,0647.1,31.0
2021-10-26T21:18:00Z,00000200,01000000,0000.27,0000.01,-000.10,-000.08,-000.12,0000.35,0000.20,0000.17,0000.38,17.6,24.4,,00.0,0647.1,31.0
2021-10-26T21:19:00Z,00000200,01000000,-001.02,0000.03,-000.26,0000.45,-000.09,-000.11,0000.22,-000.29,-000.16,17.6,24.4,,00.0,0647.2,31.0
2021-10-26T21:20:00Z,00000200,01000000,0000.17,-000.27,0000.26,0000.33,0000.05,-000.06,0000.02,0000.35,0000.15,17.6,24.4,,00.0,0647.2,31.0
2021-10-26T21:21:00Z,00000200,01000000,-000.09,-000.08,-000.03,0000.49,-000.25,-000.13,0000.24,-000.08,0000.29,17.7,24.4,,00.0,0647.2,31.0
2021-10-26T21:22:00Z,00000200,01000000,0000.30,-000.10,-000.26,-000.17,0000.00,0000.20,0000.19,0000.17,0000.02,17.7,24.4,,00.0,0647.2,31.0
2021-10-26T21:23:00Z,00000200,01000000,-000.16,-000.01,-000.30,-000.11,0000.22,-000.14,-000.02,0000.30,0000.26,17.8,24.4,,00.0,0647.2,31.0
2021-10-26T21:24:00Z,00000200,01000000,0000.75,-000.24,-000.01,-000.06,0000.26,-000.03,0000.17,0000.36,-000.05,17.9,24.5,,00.0,0647.2,31.0
2021-10-26T21:25:00Z,00000200,01000000,-000.40,-000.27,-000.27,-000.41,-000.06,0000.09,0000.00,-000.25,0000.13,18.0,24.5,,00.0,0647.2,31.0
2021-10-26T21:26:00Z,00000200,01000000,0000.44,-000.37,0000.06,-000.03,0000.03,0000.37,-000.06,-000.06,-000.34,18.1,24.6,,00.0,0647.2,31.1
2021-10-26T21:27:00Z,00000200,01000000,0000.54,-000.12,-000.17,0000.06,0000.18,-000.07,-000.07,0000.14,-000.03,18.1,24.6,,00.0,0647.2,31.1
2021-10-26T21:28:00Z,00000200,01000000,0000.49,0000.19,0000.03,-000.65,-000.10,-000.10,0000.26,0000.02,0000.07,18.1,24.6,,00.0,0647.2,31.1
2021-10-26T21:29:00Z,00000200,01000000,-000.52,-000.03,0000.13,-000.26,0000.07,-000.00,0000.12,0000.20,0000.10,18.0,24.6,,00.0,0647.2,31.0
2021-10-26T21:30:00Z,00000200,01000000,-000.30,-000.20,0000.13,-000.25,0000.26,0000.02,-000.24,0000.16,0000.40,17.9,24.6,,00.0,0647.2,31.0
2021-10-26T21:31:00Z,00000200,01000000,0000.27,0000.01,-000.19,-000.03,0000.26,0000.07,0002.12,0001.90,0000.93,17.9,24.5,,00.0,0647.3,31.0
2021-10-26T21:32:00Z,00000200,01000000,-000.01,0000.27,0000.07,0000.59,0000.26,0000.46,0002.48,0001.35,0001.92,17.8,24.5,,00.0,0647.3,31.0
2021-10-26T21:33:00Z,00000200,01000000,0000.47,0000.17,-000.12,0000.04,-000.07,0000.17,0000.58,0001.18,0000.88,17.8,24.5,,00.0,0647.3,31.0
2021-10-26T21:34:00Z,00000200,01000000,0000.09,0000.08,0000.15,-000.11,0000.02,0000.04,0002.21,0002.11,0001.19,17.8,24.4,,00.0,0647.3,31.0
2021-10-26T21:35:00Z,00000200,01000000,0000.23,0000.36,0000.23,0000.19,-000.22,0000.23,0003.13,0002.42,0002.56,17.8,24.4,,00.0,0647.3,31.0
2021-10-26T21:36:00Z,00000200,01000000,0000.46,0000.39,-000.03,-000.06,0000.01,-000.27,0003.19,0003.17,0002.57,17.8,24.5,,00.0,0647.3,31.0
2021-10-26T21:37:00Z,00000200,01000000,-000.17,-000.08,0000.07,0000.19,-000.16,0000.18,0000.69,0000.77,0000.84,17.9,24.5,,00.0,0647.3,31.0
2021-10-26T21:38:00Z,00000200,01000000,0000.26,-000.20,0000.32,0000.13,0000.07,-000.02,0000.43,0000.59,0000.16,17.9,24.5,,00.0,0647.3,31.0
2021-10-26T21:39:00Z,00000200,01000000,0000.44,-000.15,-000.25,0000.85,0000.03,-000.24,0000.47,0000.51,0000.62,18.0,24.5,,00.0,0647.3,31.1
2021-10-26T21:40:00Z,00000200,01000000,0000.04,0000.10,0000.06,-000.02,0000.26,0000.20,-000.08,0000.30,-000.17,18.1,24.6,,00.0,0647.3,31.1
2021-10-26T21:41:00Z,00000200,01000000,0000.18,0000.26,-000.24,-000.02,0000.14,0000.19,0000.94,0000.33,0000.57,18.1,24.6,,00.0,0647.3,31.1
2021-10-26T21:42:00Z,00000200,01000000,-000.08,0000.17,-000.21,0000.09,0000.12,-000.14,0001.10,0001.02,0000.52,18.1,24.6,,00.0,0647.3,31.0
2021-10-26T21:43:00Z,00000200,01000000,-000.21,-000.11,-000.17,0000.65,-000.06,-000.13,0000.75,0001.05,0000.67,18.1,24.6,,00.0,0647.3,31.0
2021-10-26T21:44:00Z,00000200,01000000,0000.41,-000.27,0000.29,0000.44,0000.27,0000.32,0000.50,0000.16,0000.40,18.0,24.6,,00.0,0647.3,31.0
2021-10-26T21:45:00Z,00000200,01000000,-000.41,0000.20,0000.02,0000.01,0000.02,-000.25,0000.01,0000.23,0000.01,17.9,24.6,,00.0,0647.3,31.0
2021-10-26T21:46:00Z,00000200,01000000,0000.32,0000.32,0000.01,0000.09,-000.07,0000.11,0000.64,0000.18,0000.56,17.9,24.5,,00.0,0647.3,31.0
2021-10-26T21:47:00Z,00000200,01000000,-000.25,0000.32,0000.19,0000.29,0000.22,0000.09,0001.49,0001.32,0000.94,17.8,24.5,,00.0,0647.3,31.0
2021-10-26T21:48:00Z,00000200,01000000,0000.55,0000.55,0000.03,-000.13,-000.03,0000.15,0006.93,0006.61,0005.34,17.8,24.5,,00.0,0647.2,31.0
2021-10-26T21:49:00Z,00000200,01000000,0000.52,0000.44,0000.49,0000.58,0000.26,0000.36,0009.66,0008.82,0007.33,17.8,24.4,,00.0,0647.2,31.0
2021-10-26T21:50:00Z,00000200,01000000,0000.65,0000.99,0000.30,-000.39,0000.32,0000.21,0013.51,0012.67,0010.18,17.8,24.4,,00.0,0647.2,31.0
2021-10-26T21:51:00Z,00000200,01000000,0001.21,0000.78,0000.33,-000.56,0000.48,-000.02,0010.57,0009.90,0007.84,17.8,24.5,,00.0,0647.3,31.0
2021-10-26T21:52:00Z,00000200,01000000,0001.23,0000.52,0000.31,-000.07,0000.09,-000.02,0007.98,0007.40,0006.14,17.9,24.5,,00.0,0647.3,31.0
2021-10-26T21:53:00Z,00000200,01000000,0000.45,0000.86,0000.45,-000.20,0000.21,0000.12,0009.33,0008.72,0006.86,17.9,24.5,,00.0,0647.3,31.0
2021-10-26T21:54:00Z,00000200,01000000,0001.31,0001.43,0000.92,0000.21,0000.27,0000.04,0018.08,0017.25,0013.63,18.0,24.5,,00.0,0647.3,31.0
2021-10-26T21:55:00Z,00000200,01000000,0001.66,0000.85,0000.56,0000.00,0000.14,0000.19,0018.32,0016.60,0013.43,18.1,24.6,,00.0,0647.3,31.0
2021-10-26T21:56:00Z,00000200,01000000,0000.30,0000.10,-000.21,0000.72,-000.10,-000.07,0004.21,0003.99,0003.65,18.2,24.6,,00.0,0647.3,31.0
2021-10-26T21:57:00Z,00000200,41000000,,,,,,,0002.75,0002.50,0001.61,18.2,24.7,,00.0,0647.3,31.1
2021-10-26T21:58:00Z,00000200,61000000,,,,,,,-000.51,-000.13,-000.37,17.9,24.7,,00.0,0646.3,31.0
2021-10-26T21:59:00Z,00000200,21000000,,,,,,,-000.21,-000.15,-000.35,17.8,24.8,,00.0,0646.3,31.0
